Location: Observatoire du C�gep de Trois-Rivi�res � Champlain
(46.4753°N, 72.3231°W)
Time: 23:36:21
(UTC-04:00)

OTV 5 (USA 277) - Visible Passes

Search period start: 19 October 2017 00:00
Search period end: 29 October 2017 00:00
Orbit: 404 x 417 km, 43.0° (Epoch: 07 September)

Date Brightness Start Highest point End Pass type
(mag) Time Alt. Az. Time Alt. Az. Time Alt. Az.
19 Oct ? 18:35:01 10° W 18:38:14 41° S 18:41:27 10° ESE visible
19 Oct ? 20:12:39 10° WSW 20:14:27 18° SW 20:14:27 18° SW visible
20 Oct ? 19:21:23 10° WSW 19:24:10 24° SSW 19:25:53 16° SSE visible
21 Oct ? 18:30:13 10° W 18:33:13 30° SSW 18:36:13 10° SE visible
22 Oct ? 19:17:13 10° WSW 19:19:00 14° SSW 19:20:47 10° S visible
23 Oct ? 18:25:42 10° WSW 18:28:07 18° SSW 18:30:32 10° SSE visible
